Location: Allen Fire Department Station 4
(33.1073°N, 96.6988°W)
Time: 11:30:37
(UTC+00:00)

Cosmos 1867 - Pass Details

Date: 03 December 2021
Orbit: 773 x 802 km, 65.0° (Epoch: 23 January)

Event Time Altitude Azimuth Distance (km) Brightness Sun altitude
Exits shadow 12:13:48 16° 304° (NW) 1,990 5.0 -12.5°
Maximum altitude 12:17:26 33° 249° (WSW) 1,314 4.3 -11.7°
Drops below altitude 10° 12:22:14 10° 187° (S) 2,352 6.2 -10.8°
Sets 12:24:51 0° 177° (S) 3,273 7.1 -10.3°
